QPF
0.02 0.02 0.02 0.02 0.03 0.04 0.05 0.04 0.02 0.01 0.00 0.00 0.00 0.00 0.00 0.00 0.00 0.00 0.00 0.01 0.01 0.01 0.01 0.02 0.02 0.02 0.03 0.02 0.02 0.02 0.02 0.03 0.04 0.03 0.02 0.02 0.03 0.03 0.02 0.01 0.01 0.01 0.01 0.00
0.03 0.02 0.02 0.03 0.02 0.02 0.03 0.04 0.03 0.01 0.00 0.00 0.00 0.00 0.00 0.00 0.00 0.00 0.00 0.01 0.01 0.01 0.01 0.02 0.02 0.02 0.02 0.02 0.01 0.02 0.03 0.04 0.04 0.03 0.03 0.02 0.02 0.03 0.03 0.02 0.02 0.01 0.01 0.00
0.03 0.02 0.02 0.02 0.01 0.01 0.01 0.01 0.02 0.02 0.01 0.00 0.00 0.00 0.00 0.00 0.00 0.00 0.00 0.01 0.01 0.01 0.01 0.02 0.02 0.02 0.03 0.02 0.02 0.02 0.03 0.04 0.04 0.03 0.02 0.02 0.02 0.02 0.03 0.02 0.01 0.01 0.01 0.01
0.04 0.03 0.04 0.02 0.01 0.01 0.01 0.01 0.01 0.01 0.01 0.00 0.00 0.00 0.01 0.01 0.01 0.01 0.00 0.01 0.01 0.01 0.01 0.01 0.02 0.02 0.02 0.02 0.02 0.03 0.04 0.03 0.03 0.03 0.02 0.02 0.02 0.02 0.02 0.02 0.02 0.01 0.01 0.00
0.05 0.04 0.03 0.02 0.02 0.02 0.02 0.02 0.01 0.01 0.01 0.01 0.00 0.01 0.01 0.01 0.01 0.01 0.00 0.01 0.01 0.01 0.01 0.01 0.02 0.02 0.02 0.02 0.02 0.04 0.04 0.02 0.03 0.02 0.02 0.02 0.02 0.02 0.01 0.02 0.02 0.01 0.01 0.00
0.06 0.06 0.04 0.02 0.01 0.02 0.02 0.03 0.02 0.01 0.01 0.02 0.02 0.01 0.01 0.01 0.01 0.01 0.01 0.01 0.01 0.01 0.01 0.01 0.01 0.02 0.02 0.02 0.02 0.04 0.04 0.02 0.02 0.02 0.02 0.02 0.02 0.02 0.02 0.01 0.01 0.01 0.01 0.01
0.05 0.04 0.03 0.02 0.01 0.01 0.02 0.03 0.01 0.01 0.02 0.02 0.02 0.01 0.01 0.01 0.01 0.01 0.01 0.00 0.01 0.01 0.01 0.01 0.01 0.02 0.03 0.02 0.02 0.04 0.04 0.02 0.02 0.02 0.02 0.03 0.03 0.02 0.02 0.01 0.01 0.01 0.01 0.01
0.03 0.04 0.03 0.01 0.01 0.03 0.03 0.02 0.01 0.01 0.01 0.01 0.01 0.01 0.01 0.01 0.01 0.01 0.01 0.01 0.01 0.01 0.01 0.01 0.01 0.02 0.03 0.03 0.03 0.05 0.04 0.02 0.02 0.02 0.02 0.03 0.03 0.02 0.01 0.01 0.01 0.01 0.01 0.01
0.05 0.04 0.03 0.02 0.02 0.03 0.02 0.02 0.01 0.01 0.00 0.01 0.01 0.01 0.01 0.01 0.01 0.01 0.01 0.01 0.01 0.01 0.02 0.02 0.02 0.02 0.02 0.03 0.03 0.05 0.04 0.03 0.03 0.02 0.02 0.02 0.02 0.02 0.01 0.01 0.01 0.01 0.01 0.01
0.03 0.02 0.02 0.02 0.02 0.02 0.02 0.01 0.01 0.01 0.00 0.01 0.01 0.01 0.01 0.01 0.01 0.01 0.01 0.01 0.02 0.02 0.02 0.03 0.02 0.02 0.02 0.03 0.04 0.05 0.04 0.04 0.04 0.03 0.02 0.02 0.02 0.01 0.01 0.01 0.01 0.01 0.01 0.01
0.01 0.01 0.01 0.01 0.01 0.02 0.02 0.02 0.01 0.01 0.01 0.01 0.00 0.00 0.01 0.01 0.01 0.01 0.01 0.01 0.02 0.02 0.03 0.03 0.03 0.03 0.03 0.03 0.03 0.04 0.04 0.04 0.04 0.03 0.02 0.02 0.01 0.01 0.01 0.01 0.01 0.02 0.02 0.02
0.01 0.01 0.03 0.03 0.02 0.02 0.02 0.02 0.02 0.02 0.02 0.01 0.00 0.00 0.01 0.01 0.01 0.01 0.01 0.01 0.01 0.02 0.02 0.03 0.03 0.03 0.04 0.04 0.03 0.03 0.04 0.04 0.04 0.03 0.02 0.02 0.02 0.02 0.02 0.02 0.02 0.02 0.02 0.02
0.02 0.02 0.02 0.02 0.02 0.02 0.02 0.02 0.02 0.02 0.01 0.01 0.01 0.00 0.01 0.01 0.01 0.01 0.01 0.01 0.01 0.02 0.02 0.03 0.03 0.03 0.03 0.04 0.04 0.03 0.03 0.04 0.04 0.04 0.03 0.03 0.02 0.02 0.03 0.03 0.03 0.02 0.02 0.02
0.02 0.02 0.02 0.02 0.02 0.02 0.03 0.03 0.02 0.02 0.01 0.01 0.01 0.01 0.00 0.01 0.01 0.01 0.01 0.01 0.01 0.02 0.02 0.03 0.03 0.03 0.03 0.03 0.03 0.03 0.03 0.03 0.03 0.03 0.03 0.03 0.03 0.02 0.02 0.02 0.02 0.02 0.02 0.02
0.01 0.02 0.02 0.02 0.02 0.02 0.02 0.02 0.02 0.02 0.02 0.02 0.01 0.01 0.01 0.01 0.01 0.01 0.01 0.01 0.02 0.02 0.02 0.02 0.02 0.03 0.03 0.03 0.03 0.03 0.03 0.03 0.03 0.03 0.03 0.04 0.03 0.03 0.02 0.02 0.02 0.02 0.02 0.01
0.01 0.01 0.01 0.02 0.02 0.02 0.01 0.01 0.01 0.02 0.02 0.01 0.01 0.01 0.01 0.01 0.01 0.01 0.01 0.01 0.01 0.01 0.02 0.02 0.02 0.02 0.02 0.02 0.02 0.03 0.03 0.03 0.03 0.03 0.03 0.03 0.03 0.03 0.02 0.02 0.01 0.01 0.01 0.02
0.02 0.01 0.01 0.01 0.01 0.01 0.01 0.01 0.01 0.01 0.01 0.01 0.01 0.01 0.01 0.01 0.01 0.01 0.01 0.01 0.01 0.01 0.01 0.02 0.02 0.02 0.02 0.02 0.02 0.02 0.02 0.03 0.02 0.02 0.02 0.02 0.02 0.02 0.02 0.01 0.01 0.01 0.01 0.01
0.01 0.01 0.01 0.01 0.00 0.00 0.00 0.00 0.00 0.01 0.01 0.01 0.01 0.01 0.01 0.01 0.01 0.01 0.01 0.01 0.01 0.01 0.01 0.01 0.01 0.01 0.01 0.01 0.02 0.02 0.02 0.02 0.02 0.02 0.02 0.02 0.01 0.01 0.01 0.01 0.01 0.01 0.01 0.01
0.00 0.00 0.00 0.00 0.00 0.00 0.00 0.00 0.00 0.00 0.00 0.01 0.01 0.01 0.01 0.01 0.01 0.01 0.01 0.01 0.01 0.01 0.01 0.01 0.01 0.01 0.01 0.01 0.02 0.02 0.02 0.02 0.02 0.02 0.02 0.01 0.01 0.01 0.01 0.01 0.01 0.01 0.01 0.01
0.00 0.00 0.00 0.00 0.00 0.00 0.00 0.00 0.00 0.00 0.00 0.00 0.00 0.00 0.01 0.01 0.01 0.01 0.01 0.00 0.01 0.01 0.01 0.01 0.01 0.01 0.01 0.01 0.01 0.01 0.01 0.01 0.02 0.01 0.01 0.01 0.01 0.01 0.01 0.01 0.01 0.01 0.01 0.01
0.00 0.00 0.00 0.00 0.00 0.00 0.00 0.00 0.00 0.00 0.00 0.00 0.00 0.00 0.01 0.01 0.01 0.01 0.01 0.01 0.01 0.01 0.01 0.01 0.01 0.01 0.01 0.01 0.01 0.01 0.01 0.01 0.01 0.01 0.01 0.01 0.01 0.01 0.01 0.01 0.01 0.01 0.01 0.01
0.00 0.00 0.00 0.00 0.00 0.00 0.00 0.00 0.00 0.00 0.00 0.00 0.00 0.00 0.00 0.01 0.01 0.01 0.01 0.01 0.01 0.01 0.01 0.01 0.01 0.01 0.01 0.01 0.01 0.01 0.01 0.01 0.01 0.01 0.01 0.01 0.01 0.01 0.01 0.01 0.01 0.01 0.01 0.01
0.00 0.00 0.00 0.00 0.00 0.00 0.00 0.00 0.00 0.00 0.00 0.00 0.00 0.00 0.01 0.01 0.01 0.01 0.01 0.01 0.01 0.01 0.01 0.01 0.01 0.01 0.01 0.01 0.01 0.01 0.01 0.01 0.01 0.01 0.01 0.01 0.01 0.01 0.01 0.01 0.01 0.01 0.01 0.01
0.00 0.00 0.00 0.00 0.00 0.00 0.00 0.00 0.00 0.00 0.00 0.00 0.01 0.01 0.01 0.01 0.01 0.01 0.01 0.01 0.01 0.01 0.01 0.01 0.01 0.01 0.01 0.01 0.01 0.01 0.01 0.01 0.01 0.01 0.01 0.01 0.01 0.01 0.01 0.01 0.01 0.01 0.01 0.01
0.00 0.00 0.00 0.00 0.00 0.01 0.00 0.00 0.00 0.00 0.00 0.01 0.01 0.01 0.01 0.01 0.01 0.01 0.01 0.01 0.01 0.01 0.01 0.01 0.01 0.01 0.01 0.01 0.01 0.01 0.01 0.01 0.01 0.01 0.01 0.01 0.01 0.01 0.01 0.01 0.01 0.01 0.02 0.02
0.00 0.00 0.01 0.01 0.01 0.01 0.01 0.01 0.01 0.01 0.01 0.01 0.01 0.01 0.01 0.01 0.01 0.01 0.01 0.01 0.01 0.01 0.01 0.01 0.01 0.01 0.01 0.01 0.01 0.01 0.01 0.01 0.01 0.01 0.01 0.01 0.01 0.01 0.01 0.01 0.01 0.01 0.02 0.02
0.01 0.01 0.01 0.01 0.01 0.01 0.01 0.01 0.01 0.01 0.01 0.01 0.01 0.01 0.01 0.01 0.02 0.02 0.02 0.01 0.01 0.01 0.01 0.01 0.01 0.01 0.01 0.01 0.01 0.01 0.01 0.01 0.01 0.01 0.01 0.01 0.01 0.01 0.01 0.01 0.01 0.01 0.01 0.01
MSLP
1025.50 1025.04 1024.48 1023.85 1023.14 1022.38 1021.58 1020.73 1019.84 1018.91 1017.94 1016.95 1015.93 1014.90 1013.87 1012.85 1011.83 1010.78 1009.69 1008.52 1007.23 1005.82 1004.26 1002.56 1000.78 998.96 997.18 995.52 994.09 992.93 992.12 991.67 991.57 991.81 992.32 993.04 993.89 994.81 995.75 996.69 997.63 998.56 999.54 1000.56
1025.65 1025.19 1024.60 1023.91 1023.14 1022.33 1021.48 1020.62 1019.75 1018.87 1017.99 1017.08 1016.16 1015.21 1014.22 1013.20 1012.13 1011.00 1009.79 1008.47 1007.03 1005.46 1003.75 1001.94 1000.06 998.16 996.33 994.65 993.19 992.03 991.22 990.78 990.70 990.95 991.48 992.22 993.09 994.02 994.97 995.91 996.83 997.76 998.73 999.77
1025.85 1025.39 1024.77 1024.03 1023.21 1022.34 1021.46 1020.58 1019.71 1018.87 1018.03 1017.18 1016.31 1015.40 1014.43 1013.40 1012.28 1011.07 1009.74 1008.30 1006.71 1004.99 1003.15 1001.22 999.23 997.25 995.35 993.62 992.13 990.96 990.15 989.73 989.69 989.99 990.57 991.36 992.29 993.27 994.26 995.24 996.19 997.15 998.15 999.21
1026.02 1025.52 1024.88 1024.11 1023.25 1022.35 1021.44 1020.55 1019.69 1018.86 1018.04 1017.22 1016.38 1015.48 1014.51 1013.45 1012.28 1010.99 1009.57 1008.01 1006.30 1004.45 1002.48 1000.42 998.32 996.23 994.25 992.45 990.92 989.73 988.92 988.52 988.53 988.89 989.56 990.45 991.47 992.55 993.64 994.71 995.74 996.75 997.80 998.92
1026.03 1025.50 1024.81 1024.02 1023.15 1022.25 1021.35 1020.47 1019.63 1018.82 1018.03 1017.23 1016.39 1015.49 1014.50 1013.41 1012.19 1010.84 1009.34 1007.68 1005.87 1003.90 1001.81 999.63 997.41 995.22 993.13 991.25 989.66 988.43 987.61 987.24 987.29 987.74 988.51 989.53 990.69 991.91 993.14 994.33 995.47 996.59 997.71 998.89
1025.78 1025.20 1024.48 1023.69 1022.84 1021.97 1021.12 1020.30 1019.51 1018.75 1017.99 1017.21 1016.38 1015.47 1014.47 1013.35 1012.09 1010.69 1009.13 1007.40 1005.50 1003.45 1001.26 998.97 996.64 994.34 992.15 990.18 988.52 987.24 986.41 986.05 986.15 986.67 987.56 988.71 990.02 991.40 992.79 994.13 995.41 996.65 997.87 999.12
1025.21 1024.57 1023.85 1023.07 1022.28 1021.50 1020.74 1020.01 1019.31 1018.63 1017.93 1017.19 1016.38 1015.48 1014.47 1013.33 1012.05 1010.61 1009.01 1007.24 1005.29 1003.18 1000.93 998.56 996.15 993.76 991.49 989.43 987.70 986.37 985.51 985.15 985.28 985.87 986.85 988.12 989.57 991.11 992.66 994.16 995.59 996.95 998.27 999.59
1024.30 1023.63 1022.92 1022.20 1021.50 1020.84 1020.22 1019.63 1019.06 1018.48 1017.87 1017.19 1016.42 1015.54 1014.53 1013.39 1012.10 1010.66 1009.05 1007.27 1005.31 1003.19 1000.91 998.51 996.06 993.62 991.29 989.18 987.39 986.01 985.11 984.74 984.88 985.50 986.55 987.91 989.47 991.14 992.82 994.46 996.01 997.48 998.89 1000.27
1023.12 1022.44 1021.78 1021.15 1020.58 1020.08 1019.62 1019.20 1018.78 1018.33 1017.82 1017.21 1016.49 1015.64 1014.65 1013.52 1012.25 1010.82 1009.24 1007.49 1005.57 1003.47 1001.23 998.86 996.41 993.98 991.63 989.50 987.68 986.27 985.34 984.94 985.07 985.70 986.76 988.16 989.79 991.54 993.31 995.04 996.69 998.25 999.72 1001.14
1021.78 1021.13 1020.54 1020.04 1019.63 1019.30 1019.03 1018.78 1018.51 1018.19 1017.78 1017.25 1016.58 1015.76 1014.80 1013.69 1012.44 1011.06 1009.53 1007.85 1006.00 1004.00 1001.84 999.55 997.19 994.81 992.52 990.41 988.60 987.18 986.23 985.80 985.89 986.49 987.53 988.92 990.56 992.33 994.14 995.92 997.62 999.22 1000.73 1002.17
1020.41 1019.84 1019.36 1019.00 1018.75 1018.60 1018.50 1018.42 1018.30 1018.09 1017.76 1017.29 1016.66 1015.86 1014.92 1013.84 1012.63 1011.30 1009.84 1008.26 1006.53 1004.66 1002.64 1000.50 998.27 996.03 993.84 991.81 990.06 988.66 987.71 987.25 987.30 987.84 988.82 990.16 991.75 993.49 995.29 997.06 998.77 1000.38 1001.90 1003.34
1019.16 1018.69 1018.35 1018.14 1018.06 1018.07 1018.12 1018.17 1018.15 1018.03 1017.75 1017.31 1016.70 1015.91 1014.98 1013.92 1012.75 1011.48 1010.11 1008.64 1007.06 1005.35 1003.51 1001.56 999.53 997.46 995.43 993.54 991.88 990.55 989.63 989.16 989.16 989.64 990.54 991.78 993.29 994.95 996.68 998.42 1000.09 1001.69 1003.19 1004.61
1018.12 1017.79 1017.60 1017.54 1017.60 1017.74 1017.91 1018.05 1018.10 1018.01 1017.75 1017.31 1016.69 1015.89 1014.96 1013.91 1012.77 1011.56 1010.28 1008.94 1007.50 1005.97 1004.34 1002.60 1000.78 998.93 997.11 995.39 993.88 992.65 991.78 991.32 991.30 991.71 992.51 993.66 995.06 996.62 998.26 999.92 1001.54 1003.09 1004.56 1005.95
1017.33 1017.15 1017.11 1017.19 1017.38 1017.62 1017.86 1018.05 1018.12 1018.03 1017.76 1017.30 1016.65 1015.83 1014.88 1013.83 1012.72 1011.56 1010.37 1009.13 1007.84 1006.48 1005.05 1003.53 1001.94 1000.32 998.72 997.21 995.86 994.76 993.98 993.56 993.53 993.89 994.62 995.67 996.95 998.40 999.94 1001.51 1003.06 1004.55 1005.97 1007.32
1016.78 1016.75 1016.86 1017.06 1017.35 1017.66 1017.94 1018.14 1018.20 1018.09 1017.79 1017.28 1016.59 1015.75 1014.79 1013.74 1012.65 1011.53 1010.41 1009.26 1008.10 1006.89 1005.63 1004.31 1002.94 1001.55 1000.17 998.87 997.72 996.77 996.10 995.75 995.74 996.08 996.75 997.71 998.89 1000.23 1001.67 1003.14 1004.61 1006.03 1007.40 1008.71
1016.40 1016.52 1016.75 1017.07 1017.42 1017.78 1018.07 1018.26 1018.30 1018.15 1017.81 1017.28 1016.56 1015.70 1014.73 1013.69 1012.62 1011.54 1010.47 1009.40 1008.33 1007.24 1006.13 1004.98 1003.80 1002.61 1001.45 1000.35 999.39 998.61 998.07 997.80 997.84 998.18 998.82 999.71 1000.80 1002.05 1003.39 1004.78 1006.16 1007.52 1008.83 1010.09
1016.12 1016.37 1016.71 1017.11 1017.52 1017.90 1018.19 1018.36 1018.37 1018.20 1017.84 1017.29 1016.56 1015.71 1014.75 1013.74 1012.70 1011.65 1010.62 1009.61 1008.61 1007.61 1006.61 1005.59 1004.57 1003.55 1002.58 1001.67 1000.89 1000.28 999.87 999.71 999.81 1000.18 1000.80 1001.65 1002.68 1003.84 1005.10 1006.40 1007.70 1008.99 1010.24 1011.44
1015.85 1016.22 1016.65 1017.10 1017.55 1017.93 1018.22 1018.38 1018.37 1018.19 1017.83 1017.29 1016.59 1015.77 1014.86 1013.89 1012.90 1011.89 1010.91 1009.94 1008.98 1008.05 1007.12 1006.20 1005.30 1004.43 1003.61 1002.87 1002.26 1001.80 1001.54 1001.48 1001.66 1002.06 1002.69 1003.51 1004.49 1005.59 1006.76 1007.98 1009.21 1010.42 1011.60 1012.74
1015.54 1016.00 1016.49 1016.98 1017.44 1017.83 1018.11 1018.27 1018.26 1018.09 1017.76 1017.26 1016.63 1015.87 1015.03 1014.13 1013.20 1012.25 1011.31 1010.38 1009.46 1008.57 1007.70 1006.86 1006.05 1005.29 1004.60 1004.01 1003.55 1003.24 1003.10 1003.15 1003.41 1003.86 1004.49 1005.29 1006.23 1007.26 1008.37 1009.51 1010.65 1011.79 1012.90 1013.96
1015.18 1015.69 1016.22 1016.73 1017.19 1017.58 1017.85 1018.00 1018.02 1017.88 1017.59 1017.17 1016.62 1015.96 1015.21 1014.40 1013.54 1012.66 1011.77 1010.89 1010.01 1009.16 1008.34 1007.56 1006.83 1006.17 1005.59 1005.13 1004.80 1004.62 1004.59 1004.74 1005.07 1005.56 1006.20 1006.99 1007.88 1008.85 1009.88 1010.94 1012.01 1013.07 1014.10 1015.10
1014.76 1015.31 1015.85 1016.36 1016.82 1017.19 1017.46 1017.61 1017.64 1017.55 1017.33 1016.99 1016.53 1015.98 1015.34 1014.63 1013.87 1013.06 1012.24 1011.41 1010.58 1009.77 1009.00 1008.28 1007.63 1007.06 1006.59 1006.24 1006.02 1005.95 1006.03 1006.26 1006.64 1007.17 1007.82 1008.57 1009.42 1010.33 1011.28 1012.26 1013.25 1014.23 1015.20 1016.13
1014.32 1014.88 1015.42 1015.92 1016.35 1016.70 1016.96 1017.12 1017.17 1017.12 1016.96 1016.71 1016.35 1015.91 1015.38 1014.77 1014.11 1013.39 1012.65 1011.88 1011.11 1010.36 1009.66 1009.00 1008.43 1007.95 1007.58 1007.33 1007.22 1007.25 1007.41 1007.71 1008.13 1008.66 1009.30 1010.03 1010.82 1011.67 1012.55 1013.45 1014.36 1015.27 1016.17 1017.04
1013.89 1014.44 1014.97 1015.44 1015.85 1016.17 1016.42 1016.57 1016.65 1016.64 1016.54 1016.36 1016.10 1015.75 1015.32 1014.82 1014.26 1013.63 1012.97 1012.28 1011.59 1010.91 1010.28 1009.71 1009.22 1008.84 1008.56 1008.41 1008.39 1008.50 1008.72 1009.07 1009.51 1010.05 1010.66 1011.34 1012.08 1012.85 1013.66 1014.49 1015.33 1016.17 1017.01 1017.84
1013.48 1014.02 1014.52 1014.97 1015.34 1015.64 1015.87 1016.03 1016.12 1016.14 1016.10 1015.99 1015.80 1015.54 1015.21 1014.81 1014.33 1013.80 1013.23 1012.62 1012.02 1011.43 1010.89 1010.41 1010.02 1009.73 1009.55 1009.49 1009.54 1009.71 1009.98 1010.35 1010.80 1011.31 1011.89 1012.52 1013.19 1013.89 1014.63 1015.39 1016.16 1016.95 1017.75 1018.53
1013.09 1013.61 1014.09 1014.51 1014.86 1015.14 1015.36 1015.52 1015.63 1015.69 1015.69 1015.64 1015.52 1015.34 1015.09 1014.77 1014.39 1013.95 1013.47 1012.96 1012.45 1011.96 1011.51 1011.13 1010.84 1010.64 1010.55 1010.57 1010.69 1010.90 1011.20 1011.57 1012.00 1012.48 1013.01 1013.58 1014.18 1014.81 1015.48 1016.17 1016.89 1017.63 1018.39 1019.15
1012.69 1013.20 1013.65 1014.05 1014.38 1014.66 1014.89 1015.06 1015.20 1015.30 1015.35 1015.36 1015.31 1015.20 1015.03 1014.79 1014.49 1014.14 1013.75 1013.34 1012.93 1012.54 1012.19 1011.92 1011.72 1011.61 1011.59 1011.67 1011.84 1012.08 1012.39 1012.75 1013.15 1013.59 1014.05 1014.55 1015.08 1015.64 1016.24 1016.88 1017.55 1018.25 1018.97 1019.70
1012.26 1012.74 1013.17 1013.55 1013.89 1014.17 1014.42 1014.63 1014.81 1014.96 1015.08 1015.15 1015.17 1015.14 1015.04 1014.89 1014.67 1014.41 1014.12 1013.80 1013.49 1013.21 1012.96 1012.78 1012.67 1012.64 1012.69 1012.82 1013.01 1013.27 1013.56 1013.90 1014.26 1014.64 1015.04 1015.47 1015.93 1016.42 1016.96 1017.53 1018.15 1018.81 1019.50 1020.21
Thickness
5426 5435 5435 5437 5441 5440 5440 5444 5445 5459 5464 5479 5476 5472 5472 5471 5469 5467 5466 5464 5463 5460 5458 5456 5455 5454 5453 5453 5453 5452 5451 5450 5449 5449 5449 5448 5448 5448 5447 5445 5444 5442 5440 5438
5414 5427 5428 5431 5438 5439 5440 5441 5444 5451 5462 5473 5468 5463 5461 5461 5461 5461 5459 5458 5457 5454 5452 5449 5447 5446 5445 5445 5444 5443 5442 5441 5440 5439 5439 5439 5438 5438 5436 5435 5433 5432 5430 5428
5407 5413 5418 5421 5435 5437 5435 5437 5440 5445 5460 5460 5457 5457 5457 5455 5455 5454 5453 5452 5450 5448 5446 5444 5441 5439 5437 5437 5436 5435 5434 5432 5431 5430 5429 5429 5428 5427 5426 5425 5423 5422 5420 5418
5393 5398 5406 5432 5434 5435 5435 5438 5439 5444 5450 5450 5451 5451 5449 5449 5448 5446 5445 5444 5443 5440 5438 5436 5433 5431 5430 5429 5427 5427 5426 5424 5422 5421 5420 5419 5418 5417 5416 5415 5414 5412 5411 5409
5385 5391 5404 5422 5426 5423 5422 5428 5433 5435 5439 5437 5437 5436 5437 5442 5441 5440 5438 5437 5435 5432 5430 5427 5425 5424 5423 5421 5420 5419 5417 5415 5413 5412 5411 5410 5410 5408 5407 5406 5405 5403 5402 5400
5378 5385 5393 5418 5420 5417 5417 5415 5426 5426 5427 5425 5427 5426 5432 5433 5431 5430 5429 5427 5425 5423 5421 5419 5418 5417 5415 5414 5413 5412 5411 5408 5406 5404 5403 5402 5401 5400 5399 5397 5396 5395 5393 5391
5372 5377 5390 5406 5406 5409 5404 5413 5418 5417 5417 5417 5419 5421 5423 5421 5419 5419 5419 5417 5415 5413 5412 5411 5410 5409 5407 5406 5405 5404 5403 5401 5399 5397 5395 5394 5393 5392 5390 5389 5387 5385 5384 5382
5360 5367 5385 5398 5395 5397 5401 5406 5407 5408 5409 5410 5411 5411 5411 5410 5410 5409 5408 5407 5406 5404 5402 5402 5401 5400 5399 5397 5397 5396 5396 5394 5391 5389 5387 5387 5385 5383 5381 5379 5377 5376 5375 5374
5367 5381 5389 5388 5390 5393 5393 5396 5399 5400 5402 5403 5402 5403 5402 5401 5400 5400 5399 5398 5397 5395 5393 5392 5392 5391 5390 5389 5388 5388 5387 5386 5383 5381 5380 5378 5376 5375 5373 5371 5369 5368 5366 5365
5361 5374 5380 5382 5383 5385 5387 5389 5392 5394 5395 5396 5395 5395 5394 5393 5391 5390 5389 5388 5387 5386 5384 5383 5382 5382 5381 5381 5380 5379 5378 5377 5375 5374 5372 5370 5369 5368 5365 5363 5361 5360 5358 5357
5356 5368 5373 5379 5378 5380 5382 5384 5385 5386 5388 5389 5388 5386 5386 5384 5383 5381 5380 5379 5378 5377 5376 5375 5374 5373 5373 5373 5372 5370 5370 5369 5368 5366 5365 5363 5361 5359 5357 5355 5354 5353 5351 5350
5361 5368 5367 5373 5375 5374 5374 5376 5378 5378 5380 5381 5381 5379 5377 5375 5374 5372 5371 5370 5369 5367 5366 5366 5365 5365 5364 5365 5363 5362 5362 5361 5360 5358 5357 5355 5353 5351 5350 5349 5348 5347 5346 5345
5359 5363 5363 5365 5367 5367 5367 5368 5369 5371 5372 5372 5371 5370 5369 5366 5365 5363 5362 5361 5360 5359 5359 5358 5357 5357 5357 5357 5356 5355 5354 5354 5352 5351 5349 5347 5345 5344 5342 5342 5341 5340 5339 5338
5352 5353 5354 5356 5357 5359 5359 5359 5360 5362 5362 5362 5361 5360 5359 5357 5356 5354 5353 5353 5352 5351 5350 5350 5350 5350 5350 5350 5350 5349 5348 5347 5346 5344 5342 5340 5338 5336 5335 5334 5332 5331 5330 5330
5346 5347 5347 5349 5349 5350 5350 5350 5350 5350 5351 5351 5351 5350 5349 5348 5347 5346 5345 5345 5344 5343 5342 5342 5342 5343 5343 5343 5343 5342 5341 5340 5338 5337 5335 5333 5331 5329 5328 5326 5325 5324 5323 5323
5339 5339 5339 5340 5341 5341 5340 5340 5340 5340 5340 5340 5340 5340 5340 5339 5338 5337 5337 5336 5336 5337 5336 5336 5336 5336 5336 5336 5335 5334 5334 5334 5332 5330 5328 5326 5324 5322 5321 5319 5318 5317 5316 5316
5330 5331 5331 5332 5332 5331 5330 5330 5331 5331 5331 5331 5331 5330 5330 5329 5329 5328 5329 5329 5329 5329 5329 5329 5330 5330 5329 5329 5329 5328 5327 5326 5326 5323 5321 5320 5318 5317 5315 5314 5312 5311 5311 5312
5326 5327 5327 5326 5325 5323 5323 5322 5322 5323 5322 5322 5322 5321 5321 5321 5321 5322 5321 5321 5321 5321 5322 5322 5322 5323 5322 5322 5322 5321 5320 5319 5318 5317 5315 5314 5313 5311 5309 5308 5307 5307 5307 5307
5320 5320 5320 5319 5318 5317 5316 5315 5315 5315 5314 5314 5313 5313 5313 5314 5314 5314 5313 5313 5314 5314 5315 5315 5316 5316 5315 5315 5315 5314 5313 5312 5312 5311 5310 5310 5308 5306 5305 5303 5303 5302 5302 5302
5313 5313 5312 5311 5311 5310 5309 5308 5307 5306 5306 5307 5306 5306 5306 5306 5306 5306 5306 5307 5308 5309 5309 5309 5309 5308 5308 5308 5308 5307 5307 5306 5306 5305 5305 5304 5303 5302 5301 5300 5299 5299 5299 5298
5305 5305 5304 5303 5303 5303 5302 5301 5300 5300 5300 5300 5300 5300 5300 5300 5300 5300 5301 5302 5303 5303 5303 5304 5303 5302 5302 5302 5302 5301 5301 5301 5300 5300 5300 5300 5299 5299 5298 5297 5297 5296 5296 5295
5297 5297 5297 5296 5295 5294 5294 5294 5293 5293 5293 5293 5294 5294 5294 5294 5294 5295 5296 5297 5298 5299 5298 5298 5297 5298 5298 5298 5297 5296 5296 5296 5296 5296 5296 5296 5296 5296 5295 5294 5294 5294 5293 5293
5290 5290 5290 5289 5288 5287 5287 5287 5287 5287 5287 5287 5287 5288 5289 5289 5290 5290 5292 5292 5293 5294 5294 5294 5294 5295 5294 5293 5292 5292 5292 5292 5292 5292 5292 5293 5293 5292 5292 5292 5291 5291 5291 5291
5283 5283 5283 5282 5281 5281 5281 5281 5281 5281 5281 5282 5282 5283 5284 5285 5285 5286 5287 5288 5289 5290 5290 5290 5291 5291 5290 5289 5288 5288 5288 5288 5289 5289 5290 5289 5289 5289 5289 5289 5289 5289 5289 5289
5277 5276 5276 5276 5276 5277 5277 5276 5276 5276 5276 5277 5278 5278 5279 5280 5281 5281 5282 5282 5284 5285 5284 5285 5286 5286 5285 5285 5285 5285 5285 5286 5286 5286 5286 5286 5286 5286 5286 5286 5286 5287 5287 5287
5271 5271 5271 5271 5271 5272 5271 5271 5272 5272 5272 5273 5273 5274 5274 5275 5276 5276 5277 5277 5278 5279 5279 5279 5279 5280 5280 5281 5281 5281 5281 5282 5282 5282 5282 5283 5283 5283 5283 5283 5283 5284 5284 5285
5266 5265 5266 5267 5267 5267 5266 5266 5267 5267 5268 5268 5269 5269 5269 5270 5270 5271 5271 5272 5272 5273 5273 5274 5274 5274 5275 5275 5276 5276 5276 5277 5277 5278 5278 5279 5279 5279 5280 5279 5280 5280 5281 5282